Regional Weather Roundup
Issued by NWS

Home | Current Version | Previous Version | Graphics & Text | Print | Product List | Glossary On
Versions: 1 2 3 4 5 6 7 8 9 10 11 12 13 14 15 16 17 18 19 20 21 22 23 24 25 26 27 28
000
ASUS45 KBOI 270110
RWRID

IDAHO REGIONAL WEATHER ROUNDUP
NATIONAL WEATHER SERVICE BOISE ID
700 PM MDT TUE JUL 26 2016

NOTE: "FAIR" INDICATES FEW OR NO CLOUDS BELOW 12000 FEET
WITH NO SIGNIFICANT WEATHER AND/OR OBSTRUCTIONS TO VISIBILITY

IDZ012-014-270200-
SOUTHWEST IDAHO


CITY           SKY/WX    TMP DP  RH WIND       PRES   REMARKS
BOISE          SUNNY     98  39  13 N13       29.91F HX  93
CALDWELL       SUNNY     99  49  18 NW5       29.88F HX  96
MOUNTAIN HOME  SUNNY     99  42  14 NW14      29.91F HX  94
$$

IDZ016-017-270200-
SOUTHCENTRAL IDAHO


CITY           SKY/WX    TMP DP  RH WIND       PRES   REMARKS
BURLEY         SUNNY     87  46  24 W7        29.99S
JEROME         SUNNY     91  45  20 W8        30.00S
TWIN FALLS     SUNNY     94  35  12 NW10      30.00F
$$

IDZ019>023-270200-
SOUTHEAST IDAHO


CITY           SKY/WX    TMP DP  RH WIND       PRES   REMARKS
IDAHO FALLS    PTSUNNY   84  41  21 NE17G28   30.04S
POCATELLO      SUNNY     94  32  11 W15       30.01S
REXBURG        MOSUNNY   85  37  18 NE17G32   30.06F
$$

IDZ006-010-011-018-031-032-270200-
CENTRAL IDAHO MOUNTAINS


CITY           SKY/WX    TMP DP  RH WIND       PRES   REMARKS
MCCALL         FAIR      86  40  19 NW7       30.10S
HAILEY         MOSUNNY   88  34  14 S9        30.08S
STANLEY          N/A     84  32  15 N9        30.19F
SALMON         PTSUNNY   79  48  34 NW6       30.07F
CHALLIS        PTSUNNY   76  41  28 N13G28    30.12R
$$

IDZ002-004-006-007-026-270200-
NORTHERN IDAHO


CITY           SKY/WX    TMP DP  RH WIND       PRES   REMARKS
LEWISTON       SUNNY     98  49  18 NW7       29.89F HX  95
LOWELL           N/A     83  57  41 CALM      29.89R
COEUR D`ALENE  SUNNY     88  52  29 N8        29.96S
MULLAN PASS    MOSUNNY   71  48  43 CALM      30.22S
$$




USA.gov is the U.S. government's official web portal to all federal, state and local government web resources and services.